[[{"header":{"parameterUnit":"m.s-1","parameterCategory":1,"la1":30.2991,"la2":30.254,"lo1":-89.0895,"lo2":-89.0444,"dy":0.0017,"dx":0.0017,"nx":28,"ny":28,"refTime":"2025-01-17T09:00:00:Z","depth":0,"parameterNumber":2,"parameterNumberName":"U-component_of_WINDS"},"data":[0,0,0,0,0,0,0,0,0,0,0,0,0,0,0,0,0,0,0,0,0,0,0,0,0,0,0,0,0,0,0,0,0,0,0,0,0,0,0,0,0,0,0,0,0,0,0,0,0,0,0,0,0,0,0,0,0,0,-2.618,-2.618,0,-2.6211,-2.6211,-2.6211,-2.6125,-2.6123,-2.612,-2.6117,-2.6152,-2.6156,-2.6159,0,0,0,0,0,0,0,0,0,0,0,0,0,-2.6049,-2.6052,-2.618,-2.618,-2.6181,-2.6211,-2.6211,-2.6211,-2.6126,-2.6122,-2.6119,-2.6116,-2.6151,-2.6155,-2.6159,0,0,0,0,0,0,0,0,0,0,0,0,0,-2.6096,-2.6053,-2.618,-2.6141,-2.6138,-2.6211,-2.6211,-2.6212,-2.6126,-2.6122,-2.6118,-2.6115,-2.615,-2.6155,-2.616,-2.6272,0,0,-2.6176,-2.6178,0,0,0,0,0,0,0,0,-2.6093,-2.6101,-2.6147,-2.6144,-2.6141,-2.616,-2.6178,-2.6232,-2.6127,-2.6131,-2.6117,-2.6113,-2.6158,-2.6163,-2.6177,-2.6274,-2.6275,-2.6176,-2.6179,-2.6182,-2.6183,0,0,0,0,0,0,0,-2.609,-2.6099,-2.6192,-2.6147,-2.6144,-2.6123,-2.6126,-2.6188,-2.6167,-2.613,-2.6124,-2.6129,-2.6156,-2.6173,-2.6177,-2.6276,-2.6176,-2.6181,-2.6184,-2.6186,-2.6466,-2.647,0,0,0,0,0,0,-2.6091,-2.6097,-2.6191,-2.6193,-2.6106,-2.6129,-2.6131,-2.6158,-2.6166,-2.6163,-2.6132,-2.6125,-2.6166,-2.6172,-2.6178,-2.6311,-2.6181,-2.6186,-2.6189,-2.6462,-2.6467,-2.6472,0,0,0,0,0,0,-2.6089,-2.6101,-2.619,-2.6143,-2.6153,-2.6135,-2.6166,-2.6161,-2.6177,-2.6167,-2.6163,-2.6153,-2.6163,-2.6171,-2.6249,-2.6311,-2.6189,-2.6193,-2.6457,-2.6463,-2.6469,-2.6576,0,0,0,0,0,0,-2.6086,-2.61,-2.6142,-2.6145,-2.6156,-2.626,-2.617,-2.6164,-2.6186,-2.6176,-2.6186,-2.6183,-2.616,-2.6242,-2.6254,-2.6315,-2.6197,-2.6451,-2.646,-2.6467,-2.6567,-2.6585,-2.6601,0,0,0,0,0,-2.6081,-2.6171,-2.6145,-2.6157,-2.6207,-2.6263,-2.627,-2.624,-2.6191,-2.6233,-2.6227,-2.6183,-2.6302,-2.6251,-2.6264,-2.6328,-2.6447,-2.6457,-2.6467,-2.6559,-2.6582,-2.66,0,0,0,0,0,0,-2.6178,-2.6171,-2.6141,-2.6235,-2.625,-2.6249,-2.6301,-2.6265,-2.6296,-2.6286,-2.6249,-2.6252,-2.6337,-2.634,-2.6283,-2.6437,-2.6366,-2.6379,-2.6432,-2.6453,-2.647,-2.6468,-2.6202,0,0,0,0,0,-2.621,-2.6255,-2.6247,-2.633,-2.6339,-2.6319,-2.6342,-2.6318,-2.6333,-2.634,-2.6339,-2.6356,-2.6397,-2.6425,-2.6462,-2.6566,-2.6568,-2.6617,-2.6634,-2.6648,-2.666,-2.6715,-2.6737,-2.6504,-2.6504,-2.6504,0,0,-2.6277,-2.6278,-2.6309,-2.6349,-2.6358,-2.6407,-2.6325,-2.638,-2.6416,-2.6348,-2.6422,-2.6422,-2.6439,-2.6531,-2.6571,-2.6536,-2.6724,-2.666,-2.6671,-2.6676,-2.6728,-2.675,-2.677,-2.6511,-2.651,-2.6508,0,0,-2.6423,-2.6429,-2.6499,-2.651,-2.6524,-2.651,-2.6527,-2.6531,-2.6528,-2.6601,-2.6551,-2.6594,-2.6665,-2.6679,-2.6696,-2.6847,-2.6809,-2.6861,-2.695,-2.7005,-2.7024,-2.704,-2.7095,-2.7115,-2.6872,-2.6873,-2.6873,0,-2.6505,-2.6575,-2.654,-2.6598,-2.6618,-2.6557,-2.6629,-2.6641,-2.6667,-2.6683,-2.6642,-2.673,-2.6737,-2.6832,-2.6869,-2.6884,-2.6903,-2.686,-2.7024,-2.7039,-2.7054,-2.7106,-2.7127,-2.6879,-2.6878,-2.6878,-2.6877,0,-2.6675,-2.6724,-2.6779,-2.6805,-2.6831,-2.6896,-2.6871,-2.6902,-2.6875,-2.6866,-2.6941,-2.6947,-2.6985,-2.7005,-2.6981,-2.7097,-2.7074,-2.7029,-2.6958,-2.7083,-2.7131,-2.7151,-2.6888,-2.6886,-2.6884,-2.6882,0,0,-2.6884,-2.6889,-2.691,-2.6921,-2.6933,-2.6971,-2.7033,-2.7068,-2.7095,-2.7115,-2.7167,-2.7229,-2.7187,-2.7206,-2.7182,-2.723,-2.7351,-2.7179,-2.7179,-2.7212,-2.748,-2.7515,-2.7538,-2.7325,-2.7328,-2.7331,-2.7479,0,-2.7029,-2.7135,-2.7105,-2.7211,-2.7257,-2.72,-2.7254,-2.7267,-2.726,-2.7299,-2.7291,-2.7335,-2.7277,-2.7288,-2.7333,-2.7327,-2.7405,-2.7316,-2.7374,-2.7376,-2.7372,-2.7563,-2.76,-2.7739,-2.7498,-2.7501,-2.7503,0,-2.7213,-2.7239,-2.735,-2.7353,-2.7371,-2.742,-2.7451,-2.7488,-2.7502,-2.7493,-2.7514,-2.7481,-2.7543,-2.747,-2.7556,-2.7496,-2.7518,-2.7519,-2.7523,-2.7528,-2.7448,-2.7575,-2.7783,-2.7804,-2.7532,-2.753,-2.7528,0,-2.7356,-2.7419,-2.7493,-2.7504,-2.751,-2.7546,-2.755,-2.756,-2.7584,-2.761,-2.7625,-2.7659,-2.7679,-2.7706,-2.7683,-2.7632,-2.7773,-2.7698,-2.7768,-2.7769,-2.7801,-2.78,-2.8017,-2.7814,-2.7814,-2.7813,-2.7813,0,-2.7521,-2.7591,-2.7557,-2.7603,-2.768,-2.7645,-2.7723,-2.772,-2.773,-2.7775,-2.7728,-2.7772,-2.7738,-2.7779,-2.7761,-2.7835,-2.7844,-2.784,-2.7834,-2.7844,-2.7845,-2.7859,-2.7849,-2.7819,-2.7818,-2.7817,-2.7816,0,-2.7694,-2.7674,-2.7751,-2.775,-2.7751,-2.7808,-2.7808,-2.7851,-2.7839,-2.7897,-2.7909,-2.7892,-2.7938,-2.7917,-2.7965,-2.7953,-2.8049,-2.803,-2.8044,-2.804,-2.8111,-2.8105,-2.8346,-2.8376,-2.8153,-2.8155,-2.8157,0,-2.7802,-2.7854,-2.7859,-2.7885,-2.7892,-2.7935,-2.7958,-2.7927,-2.7953,-2.7973,-2.8014,-2.8055,-2.8087,-2.8162,-2.8155,-2.8192,-2.8175,-2.8256,-2.818,-2.8188,-2.8177,-2.8174,-2.818,-2.8272,-2.8275,-2.8277,-2.8278,0,-2.7995,-2.7983,-2.8017,-2.8049,-2.8078,-2.8102,-2.8121,-2.8146,-2.8115,-2.8147,-2.8192,-2.8217,-2.8265,-2.8307,-2.834,-2.8345,-2.8308,-2.8302,-2.8321,-2.8332,-2.8338,-2.8337,-2.8087,-2.8297,-2.8295,-2.8294,-2.8293,-2.8292,-2.8139,-2.8183,-2.8193,-2.8234,-2.8245,-2.8265,-2.8305,-2.8298,-2.8335,-2.8372,-2.8351,-2.8405,-2.8418,-2.8457,-2.8467,-2.8509,-2.8477,-2.8504,-2.851,-2.8518,-2.8528,-2.8331,-2.8515,-2.8514,-2.8514,-2.8513,-2.8513,0,-2.8331,-2.8334,-2.8372,-2.8401,-2.8433,-2.8393,-2.8413,-2.8443,-2.849,-2.8505,-2.8536,-2.8589,-2.863,-2.8625,-2.8663,-2.8697,-2.8681,-2.8708,-2.8706,-2.8708,-2.8554,-2.8535,-2.8721,-2.8721,-2.8721,-2.8721,-2.8721,-2.872,-2.8435,-2.8507,-2.8496,-2.8574,-2.8576,-2.8628,-2.8643,-2.8661,-2.8672,-2.8733,-2.8766,-2.8762,-2.877,-2.8807,-2.8843,-2.884,-2.8857,-2.8891,-2.8883,-2.8739,-2.8719,-2.8699,-2.8681,-2.8895,-2.8895,-2.9033,-2.9034,-2.9035]},{"header":{"parameterUnit":"m.s-1","parameterCategory":1,"la1":30.2991,"la2":30.254,"lo1":-89.0895,"lo2":-89.0444,"dy":0.0017,"dx":0.0017,"nx":28,"ny":28,"refTime":"2025-01-17T09:00:00:Z","depth":0,"parameterNumber":3,"parameterNumberName":"V-component_of_WINDS"},"data":[0,0,0,0,0,0,0,0,0,0,0,0,0,0,0,0,0,0,0,0,0,0,0,0,0,0,0,0,0,0,0,0,0,0,0,0,0,0,0,0,0,0,0,0,0,0,0,0,0,0,0,0,0,0,0,0,0,0,-0.1687,-0.1687,0,-0.1675,-0.1675,-0.1675,-0.1651,-0.1651,-0.165,-0.165,-0.1638,-0.1638,-0.1638,0,0,0,0,0,0,0,0,0,0,0,0,0,-0.1689,-0.1689,-0.1687,-0.1687,-0.1687,-0.1675,-0.1675,-0.1675,-0.1651,-0.1651,-0.165,-0.165,-0.1638,-0.1638,-0.1638,0,0,0,0,0,0,0,0,0,0,0,0,0,-0.1684,-0.1689,-0.1687,-0.1674,-0.1672,-0.1675,-0.1675,-0.1675,-0.1652,-0.1651,-0.165,-0.165,-0.1638,-0.1638,-0.1638,-0.1653,0,0,-0.1639,-0.1639,0,0,0,0,0,0,0,0,-0.1684,-0.1683,-0.1676,-0.1675,-0.1673,-0.1664,-0.1671,-0.1667,-0.1652,-0.1659,-0.165,-0.1649,-0.1647,-0.1646,-0.1646,-0.1652,-0.1652,-0.1639,-0.1639,-0.1639,-0.1639,0,0,0,0,0,0,0,-0.1684,-0.1684,-0.1682,-0.1676,-0.1674,-0.1668,-0.1667,-0.167,-0.1657,-0.1659,-0.1657,-0.1656,-0.1646,-0.1646,-0.1645,-0.1652,-0.1639,-0.1639,-0.1639,-0.1639,-0.1669,-0.167,0,0,0,0,0,0,-0.1687,-0.1684,-0.1683,-0.1682,-0.1677,-0.1669,-0.1667,-0.1668,-0.1657,-0.1655,-0.1657,-0.1655,-0.1646,-0.1645,-0.1645,-0.1661,-0.1639,-0.1639,-0.1639,-0.1668,-0.1669,-0.167,0,0,0,0,0,0,-0.1687,-0.1687,-0.1683,-0.1683,-0.1682,-0.1669,-0.167,-0.1668,-0.1667,-0.1656,-0.1653,-0.1658,-0.1645,-0.1645,-0.1651,-0.166,-0.1639,-0.1639,-0.1667,-0.1668,-0.1669,-0.1694,0,0,0,0,0,0,-0.1687,-0.1687,-0.1693,-0.1683,-0.1682,-0.169,-0.1671,-0.1668,-0.1667,-0.1665,-0.1657,-0.1655,-0.1645,-0.1651,-0.1651,-0.166,-0.1639,-0.1666,-0.1668,-0.1669,-0.1692,-0.1695,-0.1698,0,0,0,0,0,-0.1687,-0.17,-0.1693,-0.1693,-0.1689,-0.169,-0.169,-0.1678,-0.1668,-0.1674,-0.1666,-0.1655,-0.1659,-0.1652,-0.1652,-0.1661,-0.1666,-0.1667,-0.1669,-0.1691,-0.1695,-0.1698,0,0,0,0,0,0,-0.1711,-0.1699,-0.1691,-0.1701,-0.1697,-0.1686,-0.1693,-0.1683,-0.1681,-0.1679,-0.1665,-0.1663,-0.1671,-0.1667,-0.1659,-0.1674,-0.1661,-0.1662,-0.1677,-0.1681,-0.1684,-0.1685,-0.1639,0,0,0,0,0,-0.1718,-0.172,-0.1709,-0.1719,-0.1717,-0.1706,-0.1706,-0.1697,-0.1692,-0.1691,-0.1683,-0.1679,-0.1679,-0.168,-0.168,-0.1691,-0.1689,-0.1697,-0.1701,-0.1703,-0.1705,-0.171,-0.1714,-0.1675,-0.1675,-0.1675,0,0,-0.1731,-0.1725,-0.1727,-0.1724,-0.172,-0.1722,-0.1704,-0.1708,-0.171,-0.1691,-0.1696,-0.1691,-0.1685,-0.1694,-0.1698,-0.1691,-0.1715,-0.1705,-0.1708,-0.1708,-0.1712,-0.1716,-0.1719,-0.1676,-0.1676,-0.1676,0,0,-0.1757,-0.1753,-0.176,-0.1756,-0.175,-0.1742,-0.1744,-0.1735,-0.173,-0.1736,-0.1722,-0.1723,-0.1724,-0.172,-0.1719,-0.1742,-0.1732,-0.1743,-0.1759,-0.1764,-0.1767,-0.177,-0.1778,-0.1781,-0.1744,-0.1744,-0.1744,0,-0.1775,-0.1778,-0.1766,-0.177,-0.1769,-0.1752,-0.1759,-0.1756,-0.175,-0.1749,-0.1741,-0.1742,-0.1737,-0.1744,-0.175,-0.1749,-0.175,-0.1744,-0.1768,-0.1771,-0.1773,-0.178,-0.1783,-0.1746,-0.1746,-0.1745,-0.1745,0,-0.18,-0.1803,-0.1809,-0.1804,-0.1803,-0.1809,-0.1797,-0.1798,-0.1789,-0.1782,-0.1787,-0.178,-0.1778,-0.1779,-0.1771,-0.1785,-0.1781,-0.1771,-0.1757,-0.1778,-0.1785,-0.1788,-0.1748,-0.1747,-0.1747,-0.1746,0,0,-0.1841,-0.1828,-0.1831,-0.1828,-0.1819,-0.1821,-0.1826,-0.1823,-0.1824,-0.1821,-0.1824,-0.1825,-0.1815,-0.1813,-0.1804,-0.1809,-0.1827,-0.1798,-0.1798,-0.1803,-0.1842,-0.185,-0.1853,-0.182,-0.1821,-0.1821,-0.1843,0,-0.1865,-0.1872,-0.1861,-0.1871,-0.1873,-0.1857,-0.1861,-0.1856,-0.1849,-0.1849,-0.1842,-0.1842,-0.183,-0.1829,-0.1832,-0.1824,-0.1835,-0.1823,-0.1823,-0.1823,-0.1825,-0.1857,-0.1865,-0.1886,-0.1845,-0.1846,-0.1846,0,-0.1894,-0.1891,-0.1902,-0.1892,-0.1892,-0.1896,-0.1893,-0.1893,-0.1887,-0.1882,-0.188,-0.1869,-0.1872,-0.1859,-0.1863,-0.1855,-0.1855,-0.1851,-0.1851,-0.1851,-0.1836,-0.1857,-0.1892,-0.1895,-0.185,-0.185,-0.1849,0,-0.1922,-0.1921,-0.1927,-0.1925,-0.1914,-0.1917,-0.1913,-0.1906,-0.1905,-0.1902,-0.1901,-0.1899,-0.1897,-0.1896,-0.1884,-0.1875,-0.189,-0.1875,-0.1885,-0.1885,-0.1889,-0.1889,-0.1924,-0.1889,-0.1889,-0.1889,-0.1889,0,-0.195,-0.1956,-0.194,-0.1943,-0.195,-0.1937,-0.1944,-0.1938,-0.1932,-0.1934,-0.1919,-0.1922,-0.1906,-0.1907,-0.1898,-0.1902,-0.1902,-0.1898,-0.1895,-0.1899,-0.1899,-0.1898,-0.1896,-0.189,-0.1889,-0.1889,-0.1889,0,-0.1982,-0.1971,-0.1977,-0.1966,-0.1963,-0.1969,-0.1959,-0.1962,-0.1954,-0.1957,-0.1956,-0.1944,-0.1943,-0.1932,-0.1929,-0.1923,-0.1931,-0.1926,-0.1933,-0.1932,-0.1942,-0.1941,-0.1977,-0.1981,-0.1944,-0.1944,-0.1945,0,-0.2001,-0.2005,-0.1995,-0.1995,-0.1991,-0.1992,-0.1991,-0.1978,-0.1977,-0.197,-0.1974,-0.1972,-0.197,-0.197,-0.196,-0.1958,-0.1952,-0.1965,-0.1952,-0.1955,-0.1952,-0.1952,-0.1952,-0.1968,-0.1969,-0.1969,-0.1969,0,-0.2034,-0.2028,-0.2027,-0.2024,-0.2023,-0.202,-0.2016,-0.2017,-0.2003,-0.2003,-0.2002,-0.2,-0.1997,-0.1995,-0.1991,-0.1986,-0.1975,-0.1974,-0.1976,-0.1979,-0.1983,-0.1981,-0.1941,-0.1973,-0.1972,-0.1972,-0.1972,-0.1972,-0.206,-0.2063,-0.2056,-0.2055,-0.2051,-0.2047,-0.2049,-0.2041,-0.2041,-0.2037,-0.2029,-0.2029,-0.2023,-0.2016,-0.2012,-0.2012,-0.2005,-0.2008,-0.2009,-0.201,-0.2011,-0.1983,-0.2011,-0.2011,-0.2011,-0.201,-0.201,0,-0.2092,-0.2086,-0.2086,-0.2081,-0.208,-0.207,-0.2065,-0.2065,-0.2065,-0.206,-0.2058,-0.2057,-0.2055,-0.2045,-0.2042,-0.2044,-0.2039,-0.2044,-0.2043,-0.2042,-0.2018,-0.2016,-0.2048,-0.2048,-0.2048,-0.2048,-0.2048,-0.2048,-0.2108,-0.2113,-0.2107,-0.2109,-0.2103,-0.2104,-0.2102,-0.2098,-0.2094,-0.2093,-0.2092,-0.2085,-0.2078,-0.2074,-0.2072,-0.2069,-0.2069,-0.2075,-0.207,-0.2048,-0.2044,-0.2041,-0.2039,-0.2075,-0.2075,-0.2095,-0.2095,-0.2095]}]]